Wind_Speed
26 26 26 26 26 26 26 26 25 25 25 23 20 17 15 14 14 15 15 15 16 17 18 19 20 20 19 20 21 22 23 22 21 18 17 20 15 14 15 11 8 12 15 7 5 5 4 5 6 7 6 4 3 3 4 4 2 1 2 5 7 7 7 7 8 7 6 5 4 5 5 4 3 3 3 2 1 4 5 4 4 4 4 5 6 15 16 17
27 26 26 26 26 26 27 27 26 25 25 25 24 22 20 18 15 14 14 14 15 16 17 19 20 20 20 20 20 21 22 21 20 19 19 19 16 16 17 15 10 10 14 12 9 9 6 5 8 7 4 3 3 3 5 4 5 4 3 6 8 7 7 8 9 9 8 9 5 4 4 4 3 2 4 2 4 6 7 7 7 7 7 7 7 15 16 15
27 27 26 26 26 25 27 28 27 27 26 25 24 23 24 23 21 17 15 14 14 14 16 18 18 20 19 19 21 21 21 19 15 12 9 8 11 19 19 16 13 11 14 14 10 9 8 6 9 8 4 3 3 4 5 4 6 5 5 7 8 7 8 10 11 10 5 4 3 2 4 4 3 0 3 3 5 6 7 7 8 9 9 9 7 12 15 15
27 27 27 27 27 26 26 28 28 28 28 27 25 24 24 24 25 23 19 16 15 13 15 17 17 19 19 20 22 20 17 13 6 3 4 4 6 12 18 16 13 11 12 12 8 8 10 8 7 7 4 4 4 5 6 5 5 4 8 9 6 7 10 11 10 5 3 4 2 3 1 4 3 2 3 4 6 6 7 7 7 10 10 11 9 10 14 14
26 27 28 28 28 27 27 27 28 28 28 28 28 27 26 25 25 26 23 19 18 15 13 15 17 17 19 21 20 17 12 6 0 5 6 5 5 2 9 10 10 11 10 10 8 7 9 8 4 5 4 4 6 6 7 8 4 3 9 11 8 9 8 5 2 2 4 2 1 3 4 2 2 3 5 7 8 6 5 4 3 4 6 8 10 11 12 11
26 27 27 28 27 27 28 28 27 27 28 28 28 29 28 27 26 26 25 22 20 18 15 13 15 17 18 21 18 12 7 3 3 4 4 4 5 2 6 8 10 11 9 10 9 8 7 5 4 5 4 4 8 8 7 9 7 6 9 9 10 11 10 3 3 2 1 1 1 2 2 2 1 4 6 9 10 8 7 4 2 1 1 2 4 9 12 11
26 26 27 27 28 28 28 28 28 28 28 29 29 29 29 29 28 27 26 24 22 21 18 13 13 16 17 20 16 7 6 6 5 3 2 2 4 3 5 7 9 10 9 11 11 9 7 6 7 5 5 5 7 9 8 8 10 10 9 8 10 11 13 9 1 2 1 1 3 0 3 1 6 5 4 8 10 11 9 8 7 3 0 3 4 4 10 13
26 26 27 28 28 28 28 29 29 29 29 29 29 29 30 30 29 29 27 26 23 21 20 15 12 13 15 16 11 6 6 7 4 4 4 2 3 2 4 5 7 9 10 13 12 9 8 8 8 5 6 6 6 8 9 8 9 12 11 8 9 9 9 7 1 3 3 3 3 2 3 6 9 6 6 11 12 11 9 9 9 8 5 3 4 6 6 10
26 26 27 28 28 28 29 29 30 30 30 30 30 30 31 31 31 30 28 26 24 22 20 17 13 12 12 10 8 7 5 3 2 5 5 5 5 2 4 5 7 9 10 13 13 11 8 7 9 8 7 6 7 8 8 9 8 9 11 8 10 10 7 5 4 4 3 3 3 5 9 10 8 6 8 13 15 13 10 10 10 9 9 9 9 8 7 8
26 26 27 28 28 29 29 30 30 31 31 31 32 32 32 31 31 30 29 28 25 22 20 17 14 12 9 6 7 6 4 2 2 3 5 5 5 4 6 7 7 9 10 12 13 12 8 7 8 6 5 4 5 6 6 7 2 0 5 7 9 10 7 4 4 5 4 4 5 7 11 11 7 5 7 10 12 13 12 13 12 10 12 12 9 9 9 9
25 26 27 27 28 29 29 30 31 31 32 33 34 34 33 31 31 30 29 29 26 22 19 17 15 11 8 6 5 4 4 4 4 3 5 4 3 5 7 7 6 8 10 9 11 12 10 6 2 2 1 3 4 5 6 4 2 3 1 5 7 8 7 6 6 5 4 4 7 8 10 12 8 8 12 9 6 7 10 12 12 11 13 13 11 10 10 10
25 26 27 28 28 29 30 31 31 32 33 35 36 36 35 34 33 31 30 29 26 22 18 16 15 11 9 7 8 12 11 10 10 8 6 4 4 6 8 8 7 7 8 7 8 10 9 2 3 1 2 1 3 4 4 1 1 1 1 4 7 8 10 10 9 7 7 5 6 5 8 13 11 12 16 13 9 7 8 10 10 11 11 11 11 10 10 10
26 26 27 27 28 29 30 31 32 32 33 36 38 38 38 36 33 31 28 26 25 22 16 15 14 11 9 6 9 15 14 11 12 10 9 6 5 6 7 8 8 8 7 6 5 4 4 1 1 2 2 1 2 1 2 1 2 1 1 4 5 6 10 11 11 10 9 6 8 6 6 12 11 14 19 16 13 12 11 11 11 9 9 9 9 9 9 10
26 26 27 27 28 29 30 31 32 33 34 37 38 39 37 34 33 30 25 23 22 18 15 14 11 10 8 6 8 15 17 15 13 12 11 9 7 6 5 6 7 7 7 6 5 3 1 2 1 1 2 2 1 2 1 1 2 3 4 4 4 6 6 5 9 13 10 6 10 8 8 12 8 10 16 13 12 13 13 14 13 10 8 8 8 8 9 9
25 27 28 28 29 29 30 31 32 34 36 37 38 39 36 32 31 27 21 19 17 14 12 11 8 7 6 7 10 14 15 15 15 14 13 10 9 7 6 7 5 5 6 5 4 2 2 3 3 2 2 2 0 3 2 2 3 4 4 3 4 6 4 3 4 13 13 5 9 9 6 9 10 9 6 4 10 12 12 12 11 10 9 8 8 8 9 9
26 27 27 28 29 29 31 31 32 34 36 36 36 37 35 30 27 20 14 12 11 10 9 6 7 6 5 5 3 6 8 9 9 9 10 11 10 6 4 6 5 4 5 5 4 3 3 4 2 2 1 2 3 3 2 4 5 5 6 6 4 6 6 3 4 6 11 6 8 12 6 4 5 4 2 3 8 9 9 9 9 9 8 8 8 8 9 8
26 27 27 29 29 30 31 30 33 35 35 36 34 35 33 27 21 12 8 11 8 5 5 3 5 5 6 5 2 4 6 8 7 5 8 11 10 7 4 5 5 5 4 2 3 3 3 3 1 1 2 2 4 5 4 7 8 6 5 6 6 5 6 4 2 3 6 7 9 12 11 9 5 1 3 2 6 7 8 8 8 8 7 7 7 7 8 8
26 27 27 29 29 30 31 31 34 34 34 35 31 31 28 20 14 6 11 17 10 1 4 3 3 5 5 5 7 6 1 3 5 4 5 8 9 8 7 5 3 6 5 2 3 4 3 3 3 3 3 5 6 7 9 9 6 7 7 5 7 7 9 8 3 3 7 7 8 9 12 15 11 7 4 4 5 7 8 8 8 8 7 8 7 8 8 8
26 27 28 29 29 30 31 31 33 31 31 32 28 27 22 18 11 2 16 25 9 1 2 2 2 5 5 5 7 5 2 1 2 4 5 7 8 9 7 5 3 5 5 3 4 5 4 3 3 5 7 9 10 10 12 8 2 4 6 5 7 8 10 8 3 6 11 8 8 10 12 14 13 12 11 9 7 8 9 8 7 7 8 8 7 8 8 10
26 27 28 29 29 30 31 32 31 28 28 29 27 22 16 17 10 3 16 18 5 6 9 8 7 9 11 11 8 2 2 4 4 6 8 10 8 9 6 4 4 4 5 4 5 6 5 4 7 10 11 10 11 12 13 10 7 5 3 4 6 6 6 2 2 5 9 6 8 12 13 14 13 11 11 12 11 11 12 10 9 9 9 9 10 10 10 11
26 27 28 28 30 30 31 32 29 25 25 25 22 16 9 10 7 5 11 10 10 11 13 15 14 15 16 16 14 10 7 6 6 6 10 12 9 8 5 5 5 4 6 6 4 5 6 7 13 14 10 8 11 13 13 12 13 10 6 6 6 5 4 1 3 5 5 3 6 8 10 15 13 10 10 10 12 15 13 11 11 12 11 11 12 14 12 10
26 27 27 29 29 29 32 31 24 21 22 21 17 13 9 10 7 6 6 8 12 11 14 18 18 17 18 22 25 19 11 10 10 7 11 13 8 7 5 7 7 5 7 7 4 5 6 11 15 10 6 9 11 11 13 14 13 10 7 7 8 7 4 2 2 4 4 3 4 3 7 13 11 9 11 11 14 15 12 12 14 13 13 13 13 13 13 12
26 27 27 28 29 29 31 27 18 17 21 19 14 13 12 13 11 8 5 8 13 10 12 15 14 12 14 19 22 19 13 13 13 10 14 14 7 7 6 7 8 7 7 8 8 6 7 11 12 8 8 11 12 12 13 12 10 10 8 7 10 8 5 3 3 3 3 4 3 3 6 12 11 9 12 13 15 16 12 15 17 15 15 16 16 14 14 15
25 26 26 28 28 29 30 24 14 17 22 17 11 15 16 15 14 13 7 6 11 9 11 16 12 7 10 14 13 15 13 11 10 9 15 16 7 6 7 8 9 8 8 11 13 11 11 11 6 10 14 13 13 13 12 9 7 10 11 10 10 7 7 6 3 4 2 4 2 3 6 11 11 9 12 12 14 17 16 16 17 16 17 16 16 16 15 16
25 25 25 27 27 29 30 19 12 19 22 13 10 16 20 17 14 13 7 4 7 7 7 10 7 2 9 12 10 10 9 8 8 7 12 17 11 6 6 7 6 7 11 14 14 11 14 12 4 8 13 13 13 11 11 10 6 8 11 13 13 7 7 6 5 5 2 4 3 3 3 11 9 8 11 9 9 16 14 13 17 16 15 15 15 16 16 16
24 24 25 26 26 29 25 11 13 22 18 9 13 20 21 19 16 11 5 3 5 3 2 1 4 5 11 8 6 4 5 6 7 8 11 18 15 8 6 5 4 9 12 10 8 6 10 12 9 10 11 12 13 10 10 10 7 7 7 11 14 9 8 8 7 5 3 4 3 4 4 9 9 6 8 6 8 13 10 10 16 14 12 13 13 14 14 14
23 22 24 24 25 27 19 9 16 20 10 11 21 24 22 20 15 9 3 2 3 1 3 2 0 9 13 10 8 1 2 4 5 4 3 11 14 9 8 7 6 8 7 5 6 6 9 11 10 11 10 10 10 9 10 10 8 6 3 6 12 13 12 9 8 6 4 2 2 0 3 6 11 7 7 8 7 9 10 11 13 11 11 13 12 13 13 15
22 21 22 23 24 23 16 13 18 14 9 19 28 25 23 21 13 6 2 2 3 1 2 1 3 8 11 12 10 2 3 7 4 4 8 6 8 6 9 11 10 8 6 7 9 6 7 10 11 12 11 8 9 10 10 11 8 5 2 3 8 12 11 8 7 5 2 2 3 5 4 3 11 6 4 7 8 9 13 14 13 10 11 12 12 13 14 15
21 21 20 21 23 18 15 16 16 12 16 26 28 25 23 19 9 2 1 3 2 3 3 2 3 6 10 12 9 6 7 5 0 4 7 7 8 3 5 8 7 9 8 9 11 9 3 3 8 12 11 9 10 11 10 12 9 4 2 3 3 4 6 6 5 3 2 4 7 9 8 5 11 6 4 4 6 10 13 11 10 11 11 11 13 14 14 12
20 20 18 20 20 17 17 16 13 15 23 26 25 25 22 13 4 1 3 3 1 3 3 3 4 7 11 11 9 10 9 2 1 4 3 2 5 5 4 3 3 6 8 8 12 12 3 2 2 4 6 6 8 6 5 9 9 6 5 6 7 3 3 4 4 4 3 5 10 14 12 8 9 8 6 6 7 9 9 8 8 10 12 13 14 14 13 11
20 19 18 17 17 16 16 13 13 20 24 22 23 23 14 5 2 2 3 2 0 2 2 3 6 8 10 9 7 11 10 4 1 1 2 2 3 3 3 4 3 3 6 7 10 11 5 1 2 2 2 2 3 3 3 3 8 9 4 5 4 2 2 2 2 4 4 6 11 12 10 9 9 10 5 8 10 9 9 9 10 10 12 13 12 11 10 8
19 19 18 16 14 15 13 12 18 20 18 19 20 13 5 2 2 4 3 2 1 2 2 2 6 10 11 10 8 8 7 5 3 2 3 3 3 4 5 5 4 4 6 7 9 11 9 7 6 4 2 1 3 4 1 1 7 8 5 7 5 3 2 1 4 5 5 8 7 6 12 8 10 16 13 9 10 8 7 7 6 8 10 10 10 8 6 5
17 20 20 15 12 14 13 14 17 15 15 18 13 4 2 2 2 3 1 3 1 2 3 2 7 10 11 11 8 5 5 4 2 2 3 4 6 7 8 9 8 6 4 4 7 8 7 8 11 9 4 5 7 6 5 4 6 8 7 8 7 5 4 4 5 4 5 9 6 8 13 6 5 14 19 17 17 16 12 9 7 7 8 8 8 6 6 5
16 20 19 14 12 13 13 14 13 10 13 14 7 2 2 3 3 1 1 2 2 5 5 6 10 11 8 7 5 4 4 1 3 4 4 4 5 6 7 9 11 9 6 5 5 6 8 6 10 13 8 10 14 12 8 5 6 9 7 7 8 7 5 5 5 6 6 5 4 5 8 5 5 8 9 9 15 17 18 18 14 12 9 7 6 7 6 5
17 16 14 13 12 12 12 12 10 8 10 8 3 2 2 3 3 2 1 2 3 5 7 8 9 8 6 5 2 3 3 1 5 6 4 3 4 5 5 5 9 10 8 6 4 5 11 9 7 17 15 14 17 15 10 7 5 7 6 7 9 8 6 6 7 7 6 5 2 3 5 5 6 11 9 3 3 8 13 16 13 12 9 7 7 6 7 6
15 13 11 12 13 11 10 9 6 7 8 5 2 3 4 4 3 1 2 4 4 6 8 8 6 3 4 4 1 2 4 3 6 5 3 4 5 4 3 3 2 2 2 4 4 3 8 7 3 11 14 13 17 17 15 12 6 5 8 9 8 8 7 7 8 4 4 7 5 5 5 4 5 13 15 11 7 7 8 8 8 9 8 8 7 7 8 7
12 12 11 12 14 11 9 7 4 6 5 2 4 5 2 2 3 3 4 6 6 6 7 6 2 1 1 3 3 3 6 4 5 3 3 6 4 1 1 3 7 9 8 4 3 4 4 6 3 4 10 10 11 14 16 15 10 6 9 10 8 8 6 2 4 4 6 9 6 8 10 7 6 8 8 9 12 13 12 11 10 9 8 8 9 9 9 9
11 11 12 15 14 11 9 7 5 5 3 2 7 8 4 3 4 5 4 5 6 6 5 5 1 1 2 3 4 5 5 4 4 4 4 4 2 3 5 3 5 7 6 5 1 4 6 6 6 4 10 9 6 8 9 12 12 5 4 7 7 7 7 5 5 6 8 8 6 10 12 10 10 9 8 10 12 10 11 13 13 11 10 10 10 10 10 8
10 8 8 9 11 11 11 9 6 4 3 3 7 7 4 3 4 5 4 5 5 5 5 6 4 2 4 5 5 5 4 4 4 4 3 2 3 3 8 3 1 4 4 5 2 4 4 3 4 2 3 5 4 6 6 7 8 3 2 4 6 5 6 7 6 5 6 8 7 9 10 7 8 10 15 19 16 9 7 8 11 13 12 10 9 8 7 7
7 5 3 11 14 12 11 9 6 4 4 5 6 5 3 3 3 4 5 5 5 4 4 5 6 5 5 6 6 5 4 5 5 5 4 2 6 10 6 1 1 4 2 4 1 3 3 3 5 6 9 6 3 5 8 10 9 5 5 6 6 4 2 1 4 6 6 7 7 8 9 7 6 8 15 20 16 11 9 7 7 11 12 11 9 8 8 7
5 4 4 14 15 13 12 6 4 4 5 6 7 6 6 4 5 5 6 6 6 5 5 7 7 7 7 7 8 6 5 5 5 5 5 4 5 6 2 1 5 6 2 1 1 2 1 2 4 7 7 6 6 6 6 9 10 9 9 9 9 7 5 4 5 6 5 6 6 7 9 7 4 5 10 13 12 9 10 10 9 8 9 7 5 4 5 6
5 5 7 18 20 18 12 4 5 5 5 6 7 7 7 7 6 6 6 7 6 6 6 6 6 7 7 8 9 8 6 6 6 5 5 6 6 6 5 9 10 5 3 4 2 1 1 2 4 6 6 7 12 15 11 6 5 6 6 8 10 9 8 9 7 6 6 7 7 7 9 7 3 2 3 4 5 4 4 8 9 6 3 5 6 5 4 3
4 5 9 21 26 20 9 5 6 6 6 6 7 9 9 8 6 6 7 7 6 6 6 5 6 7 7 7 7 8 7 6 7 8 8 8 9 8 8 11 11 6 4 4 2 2 3 2 3 5 6 7 11 14 10 2 5 5 4 3 5 7 9 10 7 5 6 8 8 8 10 7 4 4 2 3 3 4 6 2 3 5 5 6 6 5 5 5
4 5 5 19 28 21 8 5 6 7 8 8 8 10 10 8 7 8 9 9 7 6 6 6 7 7 7 7 7 8 8 5 6 8 8 8 7 7 10 13 11 7 2 1 2 2 2 3 2 4 6 6 6 7 5 2 4 3 3 6 9 9 8 8 7 6 7 9 9 9 9 7 5 7 4 3 4 5 7 6 5 6 5 5 5 5 5 5
3 4 3 12 22 16 6 6 7 7 9 10 12 13 11 8 9 11 11 10 9 7 6 6 8 8 8 8 7 8 9 7 6 6 6 7 7 8 10 10 5 2 1 5 7 3 1 2 2 2 5 6 5 4 1 3 5 5 7 11 10 8 8 6 5 7 9 9 10 9 6 3 6 10 7 1 5 6 6 6 6 6 5 6 5 4 4 4
2 4 2 4 9 9 6 7 9 8 9 12 11 10 14 12 10 12 13 10 10 10 8 7 7 8 9 10 10 9 10 10 8 6 6 8 7 6 8 7 3 4 10 15 14 4 1 4 5 6 9 9 8 10 9 9 7 8 12 15 12 9 7 5 3 6 6 6 10 11 7 3 8 11 8 3 4 5 4 4 5 5 5 5 4 3 2 2
2 4 4 3 3 5 5 6 9 10 12 13 8 7 14 16 10 9 12 10 10 11 9 8 9 9 10 12 10 9 9 10 10 10 10 10 9 9 10 10 8 11 16 15 10 4 2 6 8 9 12 12 12 16 16 12 11 12 13 16 16 15 11 6 5 7 8 7 8 9 8 10 12 12 11 9 3 5 6 5 5 5 4 4 4 3 2 2
4 4 4 5 5 6 7 8 11 15 16 14 9 7 13 16 12 10 11 10 10 10 8 7 12 16 15 14 10 7 8 9 9 12 13 11 9 8 9 10 9 11 12 9 5 3 3 6 8 9 12 14 14 16 15 12 13 13 13 15 17 16 13 10 10 10 8 5 7 11 13 14 14 15 16 14 9 3 2 4 7 6 5 6 6 5 5 5
4 4 3 5 7 11 12 11 14 16 18 16 12 10 13 16 16 13 10 8 9 12 12 10 13 19 19 16 11 8 8 9 10 12 11 9 8 7 6 6 6 6 6 4 2 2 2 5 7 9 10 12 12 13 14 13 13 14 15 16 16 17 17 14 13 13 10 10 11 15 18 17 14 16 17 16 14 10 7 3 1 3 4 6 7 7 7 7
5 4 4 4 8 12 12 11 11 12 15 16 13 11 14 17 19 15 11 12 12 13 15 16 18 19 18 16 13 13 15 15 14 13 10 8 7 5 4 4 4 3 3 1 0 1 2 3 7 6 6 8 9 11 14 15 14 15 17 17 16 17 17 15 13 12 10 10 12 15 16 14 12 15 17 14 12 11 12 13 9 5 5 5 4 5 6 7
13 11 10 5 4 9 10 10 10 9 10 11 10 9 13 18 21 18 14 17 19 15 16 22 23 17 15 16 16 17 21 21 19 16 12 9 7 5 5 4 3 3 3 1 1 2 2 3 6 5 6 8 9 10 14 15 14 16 16 15 14 13 13 12 10 10 10 11 13 15 13 10 9 13 16 16 14 13 14 15 12 9 9 9 8 7 5 5
15 12 12 6 3 8 9 9 11 11 9 9 12 14 16 18 21 20 14 13 18 19 18 21 21 15 12 15 20 24 26 22 17 13 10 8 8 7 6 6 6 5 4 4 3 3 4 3 3 3 6 9 9 10 12 11 11 11 11 11 13 14 14 13 12 12 12 11 11 11 9 8 10 13 17 20 18 16 16 13 11 11 11 11 12 12 12 10
Wind_Direction
10 8 1 357 354 351 351 352 355 356 354 350 344 335 328 323 323 326 326 325 327 329 331 331 330 327 324 321 319 319 320 315 309 300 278 267 259 251 250 241 231 218 216 204 164 187 174 190 207 193 194 183 208 218 163 175 180 160 213 227 230 226 221 221 231 238 256 256 203 167 170 200 220 151 119 49 303 245 263 249 244 253 241 258 115 111 119 133
11 9 6 2 358 355 353 349 348 351 351 350 349 346 339 329 319 315 317 320 320 323 328 329 331 330 326 323 321 321 320 312 303 291 278 276 263 249 246 231 221 207 204 201 193 197 188 191 189 183 188 175 199 186 159 162 181 198 207 225 226 224 228 228 238 244 252 265 244 154 160 226 242 162 132 174 217 206 235 245 236 242 234 230 137 131 146 148
9 7 5 5 2 359 358 354 349 347 347 346 345 345 345 341 334 321 310 309 312 318 323 326 330 330 329 326 322 322 319 309 297 286 289 293 254 242 243 236 225 214 204 199 197 204 218 219 183 180 190 192 201 184 185 176 182 206 216 230 228 224 244 246 246 250 258 310 304 142 146 204 248 333 136 185 236 215 217 226 220 226 227 222 169 151 162 161
6 5 5 6 3 0 359 356 352 349 347 345 343 340 339 339 339 333 321 308 304 306 313 322 327 328 330 326 323 324 316 300 287 329 339 319 278 242 238 237 221 210 207 200 207 213 231 245 196 182 204 208 205 188 197 191 174 195 214 229 226 216 240 247 252 276 22 39 336 310 228 195 227 258 195 208 240 232 226 227 223 224 219 214 197 170 169 172
5 4 4 3 -0 358 356 353 351 350 348 346 344 341 336 333 333 333 330 319 309 301 302 313 321 326 326 325 328 326 312 287 1 10 342 338 353 252 212 214 198 194 201 200 211 211 223 248 206 187 227 220 206 197 201 202 193 226 225 230 235 236 243 229 220 34 50 44 308 294 286 229 206 239 225 229 233 227 220 219 234 238 224 214 204 182 169 178
5 3 3 0 357 354 352 351 350 348 346 344 342 340 337 333 330 328 327 325 318 307 298 300 314 321 321 328 331 316 291 276 6 347 320 17 48 114 167 181 187 188 207 211 205 201 203 225 203 192 219 225 223 219 207 199 194 233 242 231 235 247 253 235 121 99 54 5 260 260 314 2 250 246 234 235 239 240 241 253 298 22 25 310 236 186 171 184
3 3 2 359 356 354 351 350 348 347 344 342 340 338 335 332 330 327 324 323 320 312 303 292 304 313 321 335 331 293 251 275 322 330 273 71 98 158 190 198 197 192 212 215 203 197 183 192 203 196 209 221 230 226 219 207 193 217 242 236 237 243 252 264 111 137 156 229 251 338 46 264 234 242 238 239 244 244 251 265 271 273 40 356 320 235 183 187
2 0 359 357 355 353 351 348 346 345 342 339 337 335 333 329 326 324 320 319 317 314 308 294 292 305 319 335 330 296 259 259 284 294 274 206 150 183 215 215 211 210 220 216 207 197 181 193 199 192 214 220 235 229 213 214 209 219 233 232 242 243 246 266 153 164 217 232 251 262 244 237 230 249 263 250 253 248 246 252 254 258 245 215 248 261 222 194
0 358 356 355 354 352 350 347 345 343 340 338 335 332 330 326 323 320 317 314 313 313 309 299 286 292 309 321 314 308 282 245 288 303 291 237 219 227 229 233 223 221 227 222 214 204 188 194 200 202 223 229 250 246 211 210 219 221 228 227 237 247 243 233 201 195 230 234 234 244 246 247 234 250 264 249 250 250 245 247 242 240 241 229 219 229 236 219
358 358 355 354 352 350 348 346 344 341 339 336 334 331 327 325 321 318 314 308 306 306 307 301 285 280 297 301 291 294 274 287 345 317 307 267 239 249 247 248 234 225 233 228 220 212 202 204 204 212 252 259 251 251 226 216 229 190 236 243 242 257 267 243 220 203 221 237 221 236 252 254 230 215 243 242 244 239 230 241 242 233 238 237 227 220 224 229
356 355 354 353 351 349 348 346 343 341 339 336 333 329 325 323 319 314 311 304 298 297 301 302 289 269 265 272 262 260 263 283 303 305 309 299 244 246 251 253 242 232 239 236 229 225 224 224 181 126 254 264 252 248 239 215 33 25 345 286 266 267 272 254 246 212 199 235 214 225 260 263 236 221 239 235 230 215 205 227 232 228 234 233 230 225 222 227
355 353 353 352 350 348 347 345 344 341 338 335 332 328 324 321 316 311 308 301 292 288 291 298 289 257 246 258 239 248 266 273 278 280 275 278 258 243 241 245 242 242 250 246 239 237 237 273 56 160 219 267 253 247 259 210 108 3 33 283 267 264 257 238 237 219 201 214 184 191 268 262 236 227 238 229 223 228 214 227 226 218 225 225 226 226 223 226
353 352 351 350 349 347 346 344 343 341 338 335 331 328 324 321 318 312 306 300 291 281 280 295 288 246 237 250 233 248 269 274 274 273 259 257 262 248 241 245 243 244 263 273 273 259 231 238 68 249 308 320 234 215 309 356 161 218 195 247 263 268 258 226 213 207 207 199 153 157 262 259 235 220 233 229 216 227 234 239 235 223 219 215 219 222 224 222
352 351 350 349 347 346 345 343 342 340 338 335 331 329 329 328 325 316 305 298 291 276 272 291 277 232 232 250 255 265 272 266 260 261 250 240 240 243 237 239 246 243 257 274 292 324 227 195 174 280 304 247 270 354 303 186 183 227 211 209 228 248 259 220 200 187 194 191 154 173 252 260 258 228 233 228 202 208 223 234 236 232 222 207 211 218 225 224
351 350 349 348 346 345 344 342 342 340 338 336 333 334 335 333 329 321 307 296 289 271 271 283 245 217 255 266 266 268 263 255 254 256 243 227 223 231 219 207 220 233 241 249 257 271 214 180 162 209 238 173 16 314 271 225 210 219 221 211 201 225 257 307 226 180 180 184 164 181 242 255 263 258 246 199 183 195 214 228 235 233 222 204 205 213 225 230
350 349 348 347 346 345 344 343 342 339 338 337 335 335 336 332 328 325 316 310 295 262 258 260 198 198 278 283 247 246 239 229 239 244 221 210 214 221 199 181 187 206 225 238 234 223 194 187 187 209 208 141 177 218 258 262 229 205 221 229 196 206 227 260 314 196 169 140 184 206 232 239 247 261 45 108 171 183 211 231 237 236 227 208 202 208 219 228
350 349 348 347 346 345 344 343 341 339 339 338 336 336 335 331 327 330 354 0 345 271 222 201 172 194 262 274 253 258 239 209 201 207 200 202 214 213 176 169 184 183 178 212 213 198 183 188 205 217 215 206 191 178 206 239 230 211 211 232 233 227 229 205 352 282 160 141 202 221 238 244 242 189 98 145 183 181 211 233 239 241 240 223 210 209 215 222
349 348 348 347 346 345 343 343 341 340 339 339 340 337 336 336 328 338 15 3 357 186 174 160 161 207 244 243 252 276 349 158 174 191 201 198 207 204 193 199 184 168 164 176 196 195 193 193 208 220 213 208 197 183 202 219 209 205 205 217 232 235 246 231 196 204 167 172 215 219 238 247 253 257 239 221 191 187 215 228 235 241 241 234 222 218 219 222
348 347 347 346 346 345 342 342 341 341 341 341 344 343 350 2 351 334 360 354 354 176 250 267 217 241 293 303 269 259 90 90 174 190 192 185 196 193 195 212 198 181 185 195 191 182 181 194 202 214 217 208 202 202 212 225 191 200 218 218 216 219 237 237 193 170 168 182 224 218 235 245 247 252 256 256 231 211 223 224 231 239 241 241 231 226 221 222
347 346 346 346 345 344 341 340 341 343 344 344 350 354 5 13 4 332 349 344 306 281 288 278 270 271 292 308 304 266 210 237 211 209 193 180 181 181 190 204 202 211 213 208 184 178 185 198 211 217 217 203 200 213 222 242 261 262 271 261 244 236 239 238 99 178 176 186 224 220 236 249 247 243 242 251 250 237 231 223 228 230 234 242 239 237 230 226
345 344 345 344 344 344 341 339 340 343 346 348 359 12 22 16 0 330 337 309 265 278 277 273 275 271 272 277 281 279 283 257 214 204 186 180 178 176 188 188 191 211 219 226 206 189 195 212 224 221 212 202 204 214 219 235 252 260 269 274 277 253 244 3 98 178 191 214 242 231 244 252 251 245 233 234 244 244 234 225 230 228 228 236 239 242 239 235
344 343 344 343 343 344 339 339 342 344 347 351 7 30 30 13 350 305 310 296 281 263 259 269 266 266 263 259 261 264 276 264 242 218 168 172 189 194 189 178 197 211 196 217 227 195 205 230 236 222 199 215 216 213 210 218 232 242 252 259 265 245 228 355 66 176 192 218 252 272 273 265 257 248 238 228 236 244 233 227 233 229 229 233 234 240 241 240
342 341 343 341 342 343 339 339 347 352 350 346 5 31 16 356 344 314 284 287 291 261 239 248 243 252 254 251 252 245 248 248 247 234 174 169 197 211 207 186 202 220 192 199 212 200 215 234 234 216 212 221 220 221 212 210 218 223 228 233 247 243 216 257 257 204 220 239 268 337 302 278 266 252 245 233 237 247 236 230 235 227 228 233 232 235 235 236
341 341 341 340 341 341 338 337 350 357 344 333 359 17 358 345 343 333 312 277 290 274 233 232 231 243 258 263 246 220 232 237 244 245 178 171 191 193 212 215 204 220 212 206 213 219 230 235 212 199 214 220 220 224 216 210 217 216 218 226 238 230 209 234 211 157 278 294 292 338 311 281 260 237 242 234 229 243 238 231 239 232 227 232 233 234 233 233
340 339 339 340 339 340 338 336 355 350 335 333 359 354 344 341 341 336 329 287 286 274 234 224 211 266 293 281 248 216 241 240 238 251 178 176 195 181 204 224 208 225 223 217 220 228 237 241 236 209 212 218 223 223 212 205 218 227 219 223 232 219 194 202 154 139 285 281 218 174 275 282 262 213 233 237 214 236 237 225 236 236 228 230 232 234 232 234
337 337 339 338 337 340 340 342 350 339 329 340 346 336 335 335 336 335 322 277 280 280 356 184 170 13 355 325 285 251 266 268 259 255 200 189 198 201 220 214 208 230 224 226 230 232 241 236 239 240 220 214 223 223 209 196 215 239 217 213 223 217 199 188 166 164 221 250 221 162 197 273 277 219 223 226 207 235 239 224 235 234 227 227 227 232 232 234
336 337 338 336 336 339 338 334 335 333 334 333 329 327 328 328 330 328 296 258 280 277 20 0 53 16 8 349 336 315 221 325 320 298 226 201 203 209 234 223 215 228 212 224 234 222 232 223 223 242 231 215 219 219 208 197 215 242 223 207 207 206 210 193 171 185 213 253 341 223 190 268 278 250 208 198 205 247 251 237 238 228 223 227 225 228 227 229
335 337 337 334 335 336 331 326 325 327 335 324 320 321 323 324 324 315 289 288 301 354 48 5 17 18 1 342 344 344 313 348 343 352 4 303 247 215 229 233 235 239 209 212 236 232 225 213 204 219 225 214 213 217 208 200 214 231 234 226 194 195 203 180 171 199 227 253 251 234 188 240 271 262 160 186 203 237 246 238 239 230 220 223 226 228 227 228
333 335 335 331 331 337 338 327 317 315 324 321 318 321 321 318 312 272 262 284 324 18 18 16 8 358 351 347 354 354 344 3 326 322 351 322 299 284 239 243 257 267 248 227 240 247 246 211 205 212 217 213 217 221 207 205 215 199 135 60 75 164 167 152 168 176 186 227 234 223 187 202 268 262 151 189 208 221 239 238 233 233 224 220 225 227 228 228
330 331 333 332 331 335 333 322 315 317 320 319 320 323 320 308 284 243 266 255 67 15 336 10 12 348 353 356 347 341 338 318 221 311 324 311 298 292 280 274 281 279 270 254 249 250 271 18 276 233 224 227 233 229 217 215 195 132 101 78 56 47 100 126 156 149 171 230 238 228 192 180 261 266 182 200 224 210 227 245 230 225 227 225 226 227 226 221
325 325 328 330 326 326 322 316 322 321 319 322 324 323 314 280 221 254 255 213 135 356 343 8 9 354 357 2 330 320 323 293 237 310 295 276 260 262 274 268 244 249 261 257 256 257 255 258 274 280 291 307 268 239 322 254 160 129 120 130 90 19 50 68 175 181 189 230 242 226 182 170 239 261 191 191 232 210 196 229 228 218 227 229 233 236 224 204
316 316 321 323 317 315 308 305 317 318 320 326 323 318 304 267 241 227 246 330 307 18 40 15 2 350 342 339 309 292 300 288 248 194 229 246 239 236 230 229 222 234 245 234 242 251 244 225 218 244 290 315 242 204 233 265 160 155 159 157 166 204 178 162 200 202 208 238 252 169 155 177 234 254 246 229 259 252 205 218 212 201 217 228 236 232 199 156
308 311 317 319 313 306 300 303 310 314 325 326 315 301 291 274 257 209 250 325 332 43 42 24 351 340 332 325 311 298 288 275 245 226 260 252 246 241 224 223 232 247 259 237 240 249 244 221 205 216 232 201 210 207 196 200 184 182 170 170 192 190 188 204 195 204 222 240 255 154 164 196 238 253 255 244 248 257 256 262 252 225 214 211 214 192 161 157
307 312 315 316 307 298 299 303 305 314 323 318 300 288 285 239 257 302 307 308 336 352 5 10 341 326 316 295 289 334 316 288 48 357 316 274 256 254 232 221 221 232 260 266 251 244 253 245 191 192 196 185 202 218 209 184 189 200 184 186 206 195 198 209 188 208 220 237 271 177 184 207 206 239 260 231 226 234 245 255 257 254 239 203 184 169 170 191
308 313 310 305 296 295 304 302 303 318 313 305 291 272 242 233 269 305 343 347 350 342 345 343 323 302 294 280 247 49 30 11 6 345 316 298 288 286 280 247 221 223 240 247 246 237 249 261 192 189 196 184 195 213 207 181 194 207 196 205 213 204 215 232 223 217 211 224 248 186 216 231 240 267 282 272 199 202 228 246 250 257 243 193 178 182 190 203
304 302 294 288 285 289 294 287 292 307 298 298 295 251 236 255 292 358 2 357 353 339 330 320 308 274 303 324 280 61 45 342 322 324 309 313 299 275 291 331 333 300 301 268 272 272 247 258 198 192 208 198 194 202 198 193 194 184 199 213 211 214 229 239 243 233 201 227 211 165 217 258 288 279 266 251 245 217 218 233 234 238 222 193 195 199 200 208
292 289 279 275 278 274 263 253 262 283 284 287 261 251 242 267 304 328 331 338 334 328 324 316 337 151 287 319 288 335 15 351 328 355 349 330 311 255 27 26 40 44 34 7 306 340 327 295 314 206 223 226 211 208 206 205 203 189 201 201 193 226 247 237 244 233 209 230 217 178 196 207 222 257 258 233 234 232 224 219 222 221 209 210 219 217 213 213
278 280 270 262 259 242 227 225 228 250 262 260 255 258 259 250 278 299 307 324 320 315 309 290 257 177 268 291 290 325 347 336 355 8 335 309 247 104 52 7 43 63 51 38 336 338 0 316 287 224 218 231 220 214 223 221 219 222 218 189 180 216 224 201 226 235 221 231 229 205 203 198 206 232 260 247 232 225 217 213 217 217 211 216 225 229 223 208
269 279 266 225 205 203 208 206 204 232 245 236 249 261 270 264 276 288 294 307 301 293 285 272 263 270 301 303 295 313 310 293 320 319 299 276 246 355 18 11 75 59 51 56 23 310 355 309 283 332 289 264 215 201 218 223 226 267 310 220 211 220 210 204 219 231 232 236 234 225 218 207 206 221 245 250 244 237 238 228 216 213 218 220 216 221 216 194
251 271 214 164 172 191 190 188 203 228 234 230 236 248 277 306 291 282 286 285 278 271 266 273 278 277 287 296 292 295 284 273 282 271 262 282 291 311 333 150 115 1 48 104 82 296 314 272 275 323 331 315 246 205 199 201 206 208 220 229 230 227 213 214 232 230 234 238 234 233 232 223 206 213 236 248 251 248 253 253 219 209 218 218 206 204 203 194
220 264 188 168 182 183 166 175 218 213 229 234 230 237 247 256 256 263 275 268 258 255 256 261 265 268 277 282 281 282 275 269 269 260 260 265 267 274 284 340 335 345 14 131 330 323 291 268 283 300 311 301 289 289 255 225 218 206 204 213 214 214 225 238 239 225 224 240 239 242 248 236 198 216 244 256 261 253 243 235 221 211 208 190 164 176 185 181
214 256 181 173 181 170 159 209 222 195 230 227 220 231 228 230 240 244 251 251 246 243 246 251 248 252 261 260 263 269 267 265 263 260 263 256 245 245 286 314 316 332 353 311 296 315 264 255 280 278 274 281 292 297 293 290 285 259 232 218 214 209 208 218 224 213 213 232 241 257 263 246 203 243 278 290 292 300 274 234 213 193 150 111 89 71 75 104
223 243 179 176 180 168 165 240 217 206 234 219 218 227 217 224 233 225 229 233 235 233 231 235 232 232 240 241 247 255 257 257 248 249 264 266 258 260 276 291 295 303 321 302 273 280 289 275 272 281 282 284 286 278 267 349 14 307 284 289 264 239 224 224 225 222 223 221 218 237 250 246 261 289 330 10 340 8 23 9 160 117 78 77 78 66 57 49
235 247 186 183 183 174 180 231 214 222 230 219 222 222 218 227 223 218 227 221 212 216 219 222 224 225 231 232 233 239 245 248 230 233 255 267 269 283 289 292 299 305 302 315 326 315 299 303 322 325 311 302 295 270 238 94 34 344 330 328 322 323 302 269 246 241 243 228 219 232 237 234 254 268 284 25 39 44 38 36 67 86 81 76 69 58 50 41
253 246 205 186 186 187 203 212 209 228 231 227 227 217 213 222 217 215 221 218 212 210 213 222 224 228 235 237 240 239 237 242 240 234 249 264 272 284 285 286 305 333 270 289 302 303 210 281 304 315 293 285 283 272 270 13 353 337 322 307 312 345 346 317 276 252 237 222 224 234 244 287 283 267 265 96 84 67 50 44 52 66 76 77 74 65 55 49
248 236 219 176 187 208 228 210 211 226 227 231 233 211 204 213 215 209 211 220 224 217 217 224 219 228 237 234 239 242 235 239 246 248 252 255 258 262 264 268 277 279 283 288 291 288 190 247 239 227 246 259 270 280 301 329 321 302 304 303 305 316 319 319 296 275 272 254 236 225 215 267 283 275 272 244 152 126 117 101 83 82 86 85 88 89 81 88
231 223 197 185 203 224 229 216 217 223 222 225 224 193 201 211 213 202 201 209 216 214 222 227 214 220 228 223 229 237 232 234 239 245 250 248 247 255 262 269 271 270 276 278 270 244 237 251 232 225 240 250 261 271 283 297 294 288 292 292 292 294 296 299 280 285 312 308 260 240 221 222 239 252 263 270 241 144 144 148 131 129 147 142 127 121 128 141
229 226 186 188 216 232 228 214 210 219 223 221 214 201 206 209 205 202 201 201 204 202 205 216 215 222 227 222 220 228 225 228 233 235 240 241 240 251 260 260 256 256 263 264 241 201 233 250 238 236 248 252 254 262 271 277 276 277 278 277 282 287 288 289 282 280 294 287 281 298 287 256 242 240 245 257 265 256 143 137 131 133 155 156 148 158 168 175
235 251 203 183 214 238 241 226 210 215 223 223 218 210 207 209 208 206 198 194 207 206 202 211 213 216 225 224 217 224 222 218 225 227 229 234 232 235 256 265 258 250 253 260 233 182 211 252 254 251 253 254 256 264 272 275 275 278 279 276 279 283 281 280 279 273 268 263 273 289 288 279 268 255 248 251 263 281 298 289 124 120 177 178 168 173 176 177
233 245 241 207 222 239 250 241 218 215 221 220 217 209 206 213 215 210 198 195 209 208 201 213 218 213 219 220 213 224 227 221 223 223 216 217 218 215 233 247 246 253 263 277 223 180 187 263 276 283 279 269 271 278 278 275 272 270 271 269 268 273 275 272 269 266 265 269 275 278 282 287 285 273 268 267 273 287 291 285 289 299 270 245 208 190 178 170
249 247 252 250 235 233 242 244 231 230 228 215 211 210 211 216 215 214 213 205 209 210 199 209 218 214 214 218 217 227 231 225 223 221 215 212 209 206 214 212 205 236 260 255 240 221 205 264 295 308 295 278 276 277 275 277 275 264 262 267 268 267 269 263 256 255 259 272 282 283 282 284 291 292 290 286 280 275 274 279 287 291 290 295 292 273 244 209
259 250 247 249 240 224 228 238 232 237 238 211 208 214 217 219 214 214 225 214 208 216 213 208 213 212 211 217 219 226 231 228 223 220 216 215 215 215 224 226 224 231 239 241 243 229 217 247 284 274 274 281 279 275 278 285 283 265 251 251 255 257 260 261 259 256 252 252 263 268 267 282 305 309 299 293 288 278 269 268 274 276 277 281 284 286 285 277
Height
832 830 829 827 826 824 822 821 820 818 817 815 813 812 811 811 810 810 809 807 807 805 804 802 800 798 796 795 793 792 790 787 784 783 780 773 773 774 772 773 773 774 775 776 777 778 779 780 781 781 782 783 782 781 780 780 781 784 789 793 790 785 780 773 768 764 761 758 758 759 758 761 762 761 761 762 764 765 765 763 762 761 760 761 762 763 764 766
832 831 829 828 826 824 823 821 820 818 817 816 814 813 811 810 809 808 808 807 805 804 803 801 800 798 796 795 793 791 789 786 783 780 775 770 772 772 771 772 772 773 774 775 776 777 778 779 780 781 782 782 781 780 780 779 780 784 786 788 784 777 771 763 761 758 757 756 755 757 758 759 760 759 761 765 767 766 768 766 763 763 762 762 763 764 765 766
833 831 829 828 826 824 823 821 820 818 816 815 814 813 811 809 808 807 806 805 804 803 802 801 799 798 796 794 793 791 788 785 781 775 770 769 770 770 770 771 772 773 773 774 775 777 777 778 779 780 781 782 780 779 780 779 779 780 782 783 776 770 766 759 757 755 755 755 755 757 758 760 758 757 760 766 766 765 767 765 763 764 763 762 763 764 764 765
833 832 829 828 827 825 823 821 820 818 816 815 813 812 811 809 808 806 804 803 802 802 801 800 798 797 796 794 792 790 788 785 778 771 769 769 768 768 768 769 771 772 772 774 775 776 776 777 778 779 781 782 780 779 780 778 777 777 776 775 769 766 765 759 756 755 756 757 758 758 759 761 759 757 760 764 767 767 763 760 759 760 759 760 761 762 763 764
834 832 830 828 827 825 823 822 820 818 816 814 812 811 809 808 807 805 804 802 801 800 799 799 797 796 795 793 792 790 789 783 773 769 770 769 768 767 767 769 771 772 772 774 774 775 776 776 777 778 780 780 779 778 778 774 773 774 768 767 765 762 762 758 756 759 758 759 759 760 761 760 758 758 759 761 766 764 758 754 754 754 755 756 757 759 761 762
834 832 830 828 827 825 823 821 819 818 816 813 812 810 808 806 805 804 802 801 800 798 798 797 796 795 794 793 790 790 790 780 770 770 771 769 770 769 769 769 770 771 772 773 773 774 775 775 777 779 780 779 777 775 774 771 772 774 767 763 763 761 760 756 756 760 759 760 761 760 760 758 760 762 759 759 760 756 752 751 751 751 752 753 753 755 758 760
834 832 830 829 827 825 822 821 819 817 815 813 811 808 806 804 803 802 800 799 798 797 796 795 795 794 793 791 788 788 790 780 771 772 771 770 771 770 771 770 770 772 772 772 772 772 773 774 776 777 778 778 775 772 770 769 770 773 769 764 761 759 758 755 757 760 759 761 760 759 761 761 763 762 757 757 755 752 751 750 750 750 750 752 752 753 755 756
834 833 831 829 827 825 823 820 818 816 814 812 810 808 805 803 801 799 798 797 796 795 794 793 793 793 792 791 789 787 785 778 772 772 771 771 771 771 772 771 771 771 771 771 770 770 771 773 774 775 777 776 772 769 768 769 770 769 768 764 761 759 757 756 758 761 760 760 759 759 762 762 761 760 757 755 752 749 750 749 748 749 750 751 752 752 753 754
835 833 831 829 827 825 823 820 818 816 813 811 809 806 804 802 799 797 796 795 794 793 792 791 791 791 791 790 790 788 779 773 772 772 771 771 771 772 772 772 772 771 771 770 769 769 769 770 771 771 773 772 770 767 765 769 770 764 764 763 761 759 756 756 758 760 760 759 759 760 762 760 758 759 756 751 749 747 747 747 747 748 749 749 750 751 751 752
835 833 831 829 827 825 822 820 817 815 812 810 807 805 803 800 798 795 793 792 791 791 790 790 789 789 791 789 790 788 775 770 772 771 771 771 771 772 772 772 771 771 770 769 768 768 767 768 768 767 770 769 768 767 764 766 765 762 763 762 761 759 756 756 757 759 760 759 759 761 761 757 755 758 754 747 743 743 745 746 745 747 747 747 748 749 749 750
835 833 831 829 827 824 822 819 817 814 811 808 806 803 801 799 796 794 792 790 789 789 788 788 788 788 788 787 790 785 772 771 772 771 771 771 771 771 771 772 771 771 770 769 768 766 766 766 765 767 770 769 767 767 763 763 763 763 765 764 761 760 758 757 758 758 760 760 758 759 760 756 755 754 749 744 741 739 741 742 743 745 744 743 745 746 747 747
836 834 831 829 827 824 821 819 816 814 810 807 804 800 798 796 794 792 790 787 786 786 786 786 786 786 786 786 785 778 771 771 771 770 771 770 770 770 770 771 771 771 770 768 768 766 766 766 766 768 768 767 768 768 765 762 763 765 766 767 763 760 758 756 757 757 758 759 755 760 762 753 750 749 742 740 739 737 738 739 739 740 740 741 742 742 743 743
836 834 831 829 827 824 821 818 815 813 809 806 802 798 795 792 790 789 787 785 784 784 784 784 784 784 785 782 775 772 771 771 769 769 769 769 770 769 769 770 770 770 769 768 768 767 767 766 767 768 767 768 769 768 766 763 765 767 768 769 767 766 758 749 752 754 756 757 752 761 761 742 737 739 735 734 736 737 739 737 736 736 737 738 739 739 739 739
836 834 831 829 826 824 821 818 815 812 808 805 800 795 792 788 787 785 784 782 781 781 782 782 782 783 783 776 769 770 770 769 769 767 767 768 768 768 768 768 769 770 769 768 768 767 767 767 768 768 767 768 768 767 767 766 767 767 767 769 770 769 756 742 745 750 755 755 750 760 759 738 731 730 727 728 731 735 737 735 733 733 734 735 736 736 736 735
836 833 831 829 826 824 821 818 815 811 807 803 798 794 789 786 784 781 781 780 779 780 780 780 780 781 781 773 767 767 767 767 767 765 766 766 767 767 766 767 768 769 769 769 768 767 767 767 768 769 768 767 768 770 769 767 766 765 766 768 768 767 756 743 742 744 751 755 752 758 757 741 732 727 723 725 727 731 733 732 731 730 730 732 733 734 733 732
836 834 831 829 826 823 820 817 814 810 807 802 798 793 788 785 783 781 779 777 777 777 778 780 779 781 780 772 766 765 765 765 764 763 764 764 765 765 765 766 767 767 769 768 768 767 767 767 767 768 768 767 769 772 772 770 766 761 762 763 761 763 758 748 746 743 746 754 755 754 748 736 729 727 726 725 726 730 731 731 729 728 727 728 729 730 730 729
836 834 831 829 826 823 820 817 814 810 806 801 798 793 787 784 782 781 779 778 777 776 778 779 778 781 777 767 765 765 762 762 762 763 763 763 765 764 765 765 765 766 767 768 768 767 767 767 767 766 766 768 767 770 776 774 766 759 759 759 755 754 752 749 750 748 748 753 754 753 746 734 727 727 729 727 727 729 730 729 727 725 724 724 725 725 725 725
836 834 831 829 826 823 820 817 814 810 806 802 797 793 788 785 783 781 779 779 778 777 778 777 779 782 772 763 765 762 760 761 761 763 763 763 764 764 765 765 765 765 767 768 768 768 768 766 765 767 766 766 764 764 767 760 754 755 755 757 756 750 746 743 744 746 750 753 752 754 750 739 732 729 728 727 728 728 728 727 725 723 722 721 721 721 721 722
836 834 831 829 826 823 820 817 814 810 806 802 798 794 788 783 781 780 780 781 781 781 779 777 779 779 768 762 763 760 759 761 762 762 763 763 764 764 764 765 764 765 767 769 768 767 767 766 767 768 762 759 758 755 753 746 743 747 747 749 751 747 742 737 738 744 748 751 753 751 746 739 736 733 729 726 726 727 725 724 723 721 720 718 718 717 717 718
836 834 832 829 826 823 820 817 814 811 807 803 799 794 789 789 788 785 784 785 785 785 782 779 778 774 767 763 762 761 760 760 761 761 761 763 763 764 764 765 765 766 767 765 766 764 764 769 766 759 752 750 752 750 749 745 742 744 745 746 744 742 739 735 742 747 744 747 748 744 742 737 733 731 728 725 723 723 722 722 721 720 718 716 714 713 712 712
836 834 831 829 826 823 820 817 814 812 809 806 802 798 799 804 804 800 795 788 782 784 782 776 775 772 767 765 762 762 761 760 759 759 760 761 763 765 764 764 767 769 766 761 761 759 762 766 755 745 746 746 746 746 747 748 745 745 747 747 746 743 740 739 744 746 744 746 742 737 737 732 727 726 723 722 720 716 715 718 717 715 715 713 710 709 708 707
837 834 831 829 826 824 820 816 814 813 810 808 805 805 808 811 811 810 807 795 779 779 779 772 771 767 762 761 760 762 764 761 758 757 758 760 762 763 761 762 766 765 762 761 760 761 764 759 744 741 745 743 741 741 743 746 746 748 747 748 747 741 740 744 747 747 746 746 741 737 736 728 724 723 719 717 714 708 709 711 710 709 710 708 706 705 703 703
837 834 832 829 826 824 821 816 815 813 812 809 808 809 811 811 811 809 810 803 782 771 770 766 765 762 758 757 756 760 763 758 756 754 754 758 760 760 759 760 763 759 757 759 758 761 762 750 739 742 741 739 739 737 738 742 744 746 746 747 743 737 740 743 746 750 748 744 743 742 741 729 721 721 717 713 709 703 704 704 702 703 703 702 700 699 699 698
836 834 832 829 826 824 820 817 815 814 813 811 810 811 812 811 811 809 808 804 785 766 759 757 757 759 757 755 754 757 757 753 753 752 751 755 757 757 757 756 758 758 755 753 751 753 749 738 734 738 737 736 737 735 735 739 742 741 741 742 738 737 740 738 743 752 748 745 745 744 742 722 708 713 710 706 706 700 698 700 698 697 696 696 695 694 694 693
836 834 832 829 827 824 820 817 815 816 813 811 811 811 811 810 809 810 808 804 790 764 751 753 755 757 755 752 753 752 752 751 750 749 749 751 753 754 755 752 754 757 752 747 748 747 740 732 731 734 735 734 734 734 732 734 739 739 736 734 734 736 737 737 743 749 746 746 743 742 742 716 691 697 698 697 704 697 692 696 693 691 691 691 691 689 688 688
835 833 831 829 827 823 820 817 816 816 813 811 812 810 811 810 808 809 808 806 791 762 751 754 754 757 756 753 753 751 754 754 746 746 747 747 749 749 752 751 749 751 748 745 746 741 733 731 732 732 732 733 733 732 729 730 738 737 729 726 730 734 735 736 739 742 742 741 738 737 740 720 692 687 689 691 697 693 692 693 686 685 686 685 686 684 684 684
835 833 831 829 826 824 821 818 818 817 813 812 811 810 810 808 808 808 806 802 783 758 755 759 757 760 759 756 755 755 761 756 746 747 748 748 748 746 750 749 745 744 742 745 746 736 728 730 733 732 730 731 732 730 725 728 735 733 724 722 727 730 733 735 735 738 737 734 737 736 736 731 706 687 685 685 688 689 689 687 681 681 681 679 680 679 679 678
834 832 831 828 826 825 822 821 819 816 816 813 810 810 808 806 808 807 807 801 776 755 758 761 759 762 760 758 757 756 760 756 752 752 749 750 749 747 749 745 743 742 737 743 744 731 725 729 731 729 728 728 726 724 722 725 730 728 724 723 723 724 730 733 734 738 736 736 743 737 733 737 713 684 682 683 685 686 680 677 678 678 677 675 675 674 673 672
833 832 830 828 826 824 823 822 819 817 816 813 810 809 805 806 807 805 808 802 773 757 761 761 762 766 764 762 759 758 759 759 760 757 750 752 750 749 751 745 743 743 738 740 737 728 727 730 728 725 725 724 720 718 719 721 725 725 725 724 721 724 728 732 737 739 740 744 747 735 731 735 709 679 682 687 685 682 674 673 676 674 672 671 669 668 667 667
833 831 829 828 825 824 822 820 819 817 814 812 809 807 804 806 805 804 809 797 772 766 768 766 770 774 772 770 766 762 762 762 762 758 753 752 751 751 750 746 747 748 743 742 735 728 729 731 730 727 724 720 717 718 718 717 720 723 726 726 728 731 730 734 738 738 747 753 742 728 726 732 711 677 675 681 673 670 670 669 670 669 667 665 662 661 661 662
831 830 828 827 825 824 822 819 818 817 814 811 808 806 804 803 802 805 801 779 768 776 777 775 779 779 777 780 778 769 763 762 760 760 759 754 752 754 752 750 750 750 749 746 739 731 730 734 732 727 726 723 720 720 720 718 718 722 727 728 736 741 738 744 744 741 756 751 728 721 724 732 720 679 664 667 657 657 662 660 660 662 662 660 658 657 657 658
829 828 827 826 825 824 822 819 818 816 814 811 809 807 805 804 802 800 786 766 770 785 783 783 786 783 782 785 781 771 765 763 759 760 760 756 754 753 753 753 749 750 750 744 739 732 728 731 730 727 727 726 725 723 723 724 720 722 726 728 737 743 748 759 752 746 754 735 715 721 722 725 719 682 661 663 657 653 654 652 653 655 656 657 656 656 656 658
827 826 825 824 823 822 821 819 818 817 815 812 811 808 807 811 802 787 778 772 778 785 782 785 788 786 787 784 777 770 766 763 760 761 761 757 756 751 748 748 746 750 748 738 737 734 726 724 726 730 729 723 724 723 724 726 724 723 724 726 733 736 749 762 749 742 744 724 714 722 718 717 710 677 659 661 660 656 652 650 651 650 650 652 652 654 656 658
825 824 823 822 822 821 819 819 817 816 815 812 812 810 813 815 798 780 782 783 782 781 782 788 790 788 788 784 778 773 770 766 761 765 765 760 758 752 746 745 744 748 749 743 738 734 729 723 719 724 723 716 718 717 714 717 720 719 714 717 723 720 729 740 731 729 729 719 721 729 723 716 694 660 647 649 650 653 651 648 648 648 648 649 650 653 655 656
823 822 822 820 820 819 817 817 816 816 816 813 812 814 816 811 793 784 788 788 787 787 787 790 791 790 787 779 775 777 779 775 767 768 768 761 761 757 749 745 742 742 746 744 733 725 726 716 704 707 707 705 711 710 707 711 718 718 711 715 717 707 707 711 706 705 707 709 719 725 718 701 675 650 642 644 646 647 649 647 647 648 646 647 650 651 652 654
821 820 820 819 818 817 816 816 815 815 815 813 816 817 810 800 790 788 788 787 790 792 793 794 790 791 790 781 776 778 781 780 773 771 769 762 760 758 753 753 753 752 753 750 736 727 725 711 699 704 704 699 703 702 700 705 709 711 712 713 708 700 698 702 700 695 696 701 700 701 704 694 677 657 641 644 649 645 647 648 646 647 645 645 648 648 650 650
818 817 817 816 815 815 815 814 815 815 813 815 820 815 803 796 791 789 788 788 791 792 797 802 796 793 796 791 784 781 784 784 778 777 777 769 761 756 756 762 765 766 768 767 755 742 740 729 710 709 709 700 698 698 696 696 695 700 707 706 702 704 704 705 708 699 696 697 683 680 692 693 686 664 636 638 647 643 644 644 642 644 644 644 643 643 644 644
816 815 812 810 811 812 812 813 813 813 813 816 818 809 799 796 791 788 790 790 792 793 798 804 798 791 794 794 789 784 788 790 785 785 786 778 765 758 760 765 767 769 769 771 767 756 757 750 718 703 708 702 696 702 704 698 692 695 699 695 697 709 712 710 711 703 698 695 679 673 679 679 676 662 641 639 641 637 637 638 639 640 640 640 639 638 639 640
814 813 808 805 806 808 810 812 811 812 814 817 817 806 797 794 790 788 790 791 794 796 798 799 794 790 791 792 791 787 789 791 790 791 789 779 766 758 760 764 765 768 768 768 771 765 763 759 729 706 709 708 700 705 711 706 700 700 700 695 691 695 699 699 697 693 694 693 680 672 671 665 660 653 642 637 634 633 634 633 635 635 634 635 635 635 637 637
812 812 806 800 803 806 807 809 810 812 813 812 810 803 796 795 793 790 790 792 793 794 795 794 793 793 792 791 791 789 789 789 789 790 786 778 772 763 761 763 764 765 766 766 769 767 763 763 750 727 720 721 712 704 704 702 699 703 706 703 697 692 692 696 692 683 685 689 681 672 665 653 643 639 634 630 629 632 633 630 630 629 628 628 629 631 634 635
811 809 802 798 801 802 805 809 809 810 810 805 802 799 797 796 793 790 790 791 791 790 790 791 791 793 792 792 792 789 789 789 786 787 783 778 778 772 762 761 762 763 765 766 767 767 763 763 760 747 738 735 722 705 702 700 694 695 699 698 698 695 694 701 702 686 680 685 678 669 663 646 632 630 628 625 626 628 627 627 626 624 624 625 628 631 632 634
808 804 796 795 798 799 803 807 804 804 804 799 795 794 792 791 790 790 790 789 789 788 786 787 789 790 790 789 789 787 788 788 786 785 782 776 776 772 763 760 762 763 765 766 765 763 763 763 761 755 745 737 725 712 712 710 700 696 695 691 691 692 692 699 701 688 681 684 677 673 670 650 630 630 632 629 629 628 626 624 622 624 626 628 631 634 635 635
802 797 791 791 793 795 801 802 798 798 796 791 788 787 786 786 786 788 787 787 788 786 785 785 785 786 785 784 784 785 785 786 784 781 779 775 770 767 763 760 762 763 764 766 764 762 766 768 764 755 742 731 723 713 709 710 709 707 704 700 698 695 690 688 688 683 681 680 678 682 681 657 635 632 634 633 631 631 630 627 626 629 632 634 635 636 637 637
796 792 790 790 790 791 795 794 792 791 788 785 786 784 783 782 782 783 783 783 783 782 782 782 780 780 779 777 779 780 781 783 781 775 775 774 767 763 762 760 762 763 763 767 768 769 773 771 769 768 760 746 732 715 707 713 723 725 724 726 725 717 707 697 689 687 688 681 675 679 675 656 639 633 632 632 632 633 635 634 633 634 634 636 637 638 639 639
793 789 785 787 787 787 784 781 782 783 781 781 781 780 781 779 776 777 778 778 776 777 778 777 775 774 774 774 776 775 776 779 777 773 772 772 767 763 761 761 763 763 763 765 764 769 775 772 772 780 779 767 750 729 721 731 740 740 738 736 733 730 731 726 713 703 694 680 675 678 673 658 645 636 633 633 634 635 638 637 636 637 637 638 639 640 642 643
791 784 781 784 786 783 776 771 774 776 774 775 773 772 776 776 770 769 773 775 773 771 773 772 771 773 772 773 775 775 773 774 774 773 772 771 767 762 759 759 762 762 761 761 759 764 772 769 768 773 772 765 757 741 735 744 749 747 741 735 732 732 735 738 736 723 703 687 675 669 670 668 657 646 639 634 633 636 638 638 638 639 640 641 642 643 645 646
786 778 775 780 780 777 775 772 771 769 765 767 765 762 766 768 766 766 768 769 768 767 770 769 768 771 770 769 772 774 771 771 771 771 770 768 765 761 758 758 760 760 758 758 757 761 768 768 764 764 762 757 754 747 742 747 749 747 744 738 734 732 730 735 740 732 723 720 697 668 664 668 659 650 646 638 634 636 637 637 638 640 642 643 644 646 647 647
778 769 765 768 768 766 766 765 765 762 759 758 756 754 757 761 763 764 762 760 762 764 767 768 765 764 762 762 767 769 769 770 770 766 763 763 762 762 760 757 756 756 755 755 755 757 765 767 760 759 759 753 750 747 745 747 746 741 741 739 733 730 730 735 736 728 730 739 725 700 693 684 661 649 646 641 637 637 637 637 637 638 641 643 644 646 648 649
770 765 761 761 758 752 749 749 754 757 756 753 750 749 753 755 754 754 754 757 759 757 759 763 759 756 754 755 761 764 764 765 763 759 757 758 760 761 762 760 755 752 753 755 755 757 764 764 757 756 759 753 748 747 744 745 745 740 737 735 732 729 728 730 729 724 725 731 726 718 715 702 676 655 644 640 639 637 636 636 637 639 640 641 642 643 644 646
765 762 758 757 752 746 743 743 748 750 747 745 743 741 744 746 746 746 746 748 750 747 749 752 749 747 748 750 754 756 751 748 750 749 750 754 758 759 760 760 756 753 753 755 757 759 764 764 755 755 760 757 751 748 745 744 744 741 737 733 730 730 727 725 723 720 720 722 717 711 708 699 682 662 647 643 642 640 639 637 637 639 640 640 640 640 640 641
757 756 755 754 749 744 743 740 742 744 736 733 734 734 736 736 734 737 735 732 733 734 736 738 738 740 743 744 747 746 737 734 737 738 741 746 750 752 752 752 753 755 756 757 758 759 763 763 757 759 766 761 749 746 744 739 737 737 734 730 729 729 726 722 718 715 715 716 713 710 707 696 681 669 660 651 646 645 644 641 640 640 640 639 638 638 639 639
753 751 751 751 743 738 738 736 738 735 722 719 724 725 726 725 723 730 731 724 725 726 724 725 729 733 738 740 738 730 723 723 728 731 735 739 741 744 746 746 748 753 756 757 758 758 759 762 762 764 768 760 747 745 743 740 744 743 733 726 724 722 719 715 711 709 708 710 711 709 702 690 681 680 677 667 657 652 646 644 644 642 640 639 637 635 634 634